Погода в Ударном

Россия / Республика Мордовия     54°20′26″N   42°51′24″E
темп.,
°C
ветер,
м/с
пор.,
м/с
влажн.,
%
обл.,
%
осадки,
мм/ч
давл.,
гПа
погр.,
м
8 марта, пн
пн800:00−3зсз51290100 1.1 994851
03:00−6зюз4129198 1.3 997494
06:00−10зюз3118855 0.0 999285
09:00−7юз489372 0.1 999412
12:00−4зюз51091100 0.9 9981044
15:00−4з71273100 2.3 9991517
18:00−7з4118475 0.1 1003406
21:00−12зсз349238 0.1 100782
9 марта, вт
вт900:00−14з22930 0.0 100820
03:00−15з12952 0.0 101020
06:00−13зсз129798 0.3 101153
09:00−12сз249397 0.4 1012283
12:00−9ссз3487100 0.1 1012704
15:00−9сз4586100 0.3 1013783
18:00−11сз3892100 0.1 1014411
21:00−15ссз399599 0.2 1017332
10 марта, ср
ср1000:00−18сз379896 0.1 1018202
03:00−21сз369997 0.1 1020185
06:00−22сз3798100 0.1 1022233
09:00−21сз3696100 0.1 1024317
12:00−17сз4687100 0.0 1025598
15:00−16сз4684100 0.1 1025736
18:00−19ссз2394100 0.0 102666
21:00−23ссз229550 0.0 102820
11 марта, чт
чт1100:00−24сз22960 0.0 102920
03:00−25сз22970 0.0 103020
06:00−26зсз22990 0.0 103119
09:00−21зсз24940 0.0 1032227
12:00−15зсз35870 0.0 1031409
15:00−12зсз358624 0.0 1031481
18:00−15зсз239452 0.0 103168
21:00−18зсз239526 0.0 103320
12 марта, пт
пт1200:00−19з22960 0.0 103420
03:00−20зюз12970 0.0 103420
06:00−21ююз12960 0.0 103520
09:00−16ююз24890 0.0 1034214
12:00−10ю36840 0.0 1033403
15:00−8ю48800 0.0 1032560
18:00−12ю41087100 0.0 1030329
21:00−13ю51383100 0.0 1029377